DSN-3 (KIRAMEKI-3)

Last updated on Sun Apr 12 2026 00:02:56 GMT+0000 (Coordinated Universal Time)

1 61733U 24198A 26101.48586405 -.00000248 00000+0 00000+0 0 9997 2 61733 0.0158 236.3422 0000685 123.6999 158.6408 1.00272062 5250
UTC large
Height (km)
Speed (km/s)
/
Latitude / Longitude
Inclination (degrees)
Orbital Period (minutes)
Azimuth
Elevation
Range (km)
Doppler Factor

Next 0 passes for location: London (51.5072 / 0.1276)

Sorry there are no passes over London.
DSN-3 (KIRAMEKI-3)